,,,PA_Meas_PMT16A,,PR_Meas_QMR101_102,,RH_Meas_QMH101,,SR_Meas_QMS101,,TA_Meas_QMH101,,GenWind,,GenWind,
date,time,status,PA,status,PR,status,RH,status,SR,status,TA,status,DirAvg,status,SpdAvg,
2008-08-21, 00:00:04,VALID,1010.51,VALID,0,VALID,92.0962,VALID,0.105969,VALID,24.764,VALID,181,VALID,0.605469,
2008-08-21, 00:01:04,VALID,1010.52,VALID,0,VALID,91.9895,VALID,0,VALID,24.7854,VALID,203,VALID,0.406641,
2008-08-21, 00:02:04,VALID,1010.51,VALID,0,VALID,91.898,VALID,0,VALID,24.8049,VALID,194,VALID,0.465234,
2008-08-21, 00:03:04,VALID,1010.51,VALID,0,VALID,91.8522,VALID,0,VALID,24.8244,VALID,199,VALID,0.432031,
2008-08-21, 00:04:04,VALID,1010.48,VALID,0,VALID,91.7759,VALID,0,VALID,24.8438,VALID,199,VALID,0.578516,
2008-08-21, 00:05:04,VALID,1010.52,VALID,0,VALID,91.6844,VALID,0,VALID,24.8438,VALID,196,VALID,0.696094,
2008-08-21, 00:06:04,VALID,1010.48,VALID,0,VALID,91.5624,VALID,0,VALID,24.8244,VALID,189,VALID,0.236719,
2008-08-21, 00:07:04,VALID,1010.45,VALID,0,VALID,91.6768,VALID,0,VALID,24.8244,VALID,214,VALID,0.766797,
2008-08-21, 00:08:04,VALID,1010.44,VALID,0,VALID,91.6005,VALID,0,VALID,24.8049,VALID,214,VALID,0.304688,
2008-08-21, 00:09:04,VALID,1010.44,VALID,0,VALID,91.6005,VALID,0,VALID,24.8049,VALID,210,VALID,0.366797,
2008-08-21, 00:10:04,VALID,1010.42,VALID,0,VALID,91.5395,VALID,0,VALID,24.7854,VALID,175,VALID,0.478906,
2008-08-21, 00:11:04,VALID,1010.41,VALID,0,VALID,91.5853,VALID,0,VALID,24.7464,VALID,191,VALID,0.704687,
2008-08-21, 00:12:04,VALID,1010.39,VALID,0,VALID,91.6768,VALID,0,VALID,24.7269,VALID,191,VALID,0.358203,
2008-08-21, 00:13:04,VALID,1010.36,VALID,0,VALID,91.8141,VALID,0,VALID,24.7269,VALID,191,VALID,0.428125,
2008-08-21, 00:14:04,VALID,1010.37,VALID,0,VALID,91.8903,VALID,0,VALID,24.7269,VALID,190,VALID,0.628125,
2008-08-21, 00:15:04,VALID,1010.35,VALID,0,VALID,91.837,VALID,0,VALID,24.7269,VALID,198,VALID,0.0648438,
2008-08-21, 00:16:04,VALID,1010.36,VALID,0,VALID,91.8141,VALID,0.105969,VALID,24.725,VALID,190,VALID,0.474219,
2008-08-21, 00:17:04,VALID,1010.34,VALID,0,VALID,91.8446,VALID,0,VALID,24.7445,VALID,187,VALID,0.253906,
2008-08-21, 00:18:04,VALID,1010.31,VALID,0,VALID,91.8522,VALID,0.105969,VALID,24.7445,VALID,190,VALID,0.370313,
2008-08-21, 00:19:04,VALID,1010.32,VALID,0,VALID,91.898,VALID,0,VALID,24.7659,VALID,199,VALID,0.230469,
2008-08-21, 00:20:04,VALID,1010.34,VALID,0,VALID,91.7378,VALID,0,VALID,24.725,VALID,199,VALID,0,
2008-08-21, 00:21:04,VALID,1010.31,VALID,0,VALID,91.8064,VALID,0,VALID,24.7464,VALID,199,VALID,0,
2008-08-21, 00:22:04,VALID,1010.31,VALID,0,VALID,91.8141,VALID,0.105969,VALID,24.7055,VALID,199,VALID,0,
2008-08-21, 00:23:04,VALID,1010.34,VALID,0,VALID,91.6234,VALID,0.105969,VALID,24.686,VALID,199,VALID,0,
2008-08-21, 00:24:04,VALID,1010.35,VALID,0,VALID,91.7149,VALID,0.105969,VALID,24.6666,VALID,199,VALID,0.2125,
2008-08-21, 00:25:04,VALID,1010.38,VALID,0,VALID,91.7226,VALID,0.105969,VALID,24.6489,VALID,199,VALID,0,
2008-08-21, 00:26:04,VALID,1010.35,VALID,0,VALID,92.0657,VALID,0.105969,VALID,24.6489,VALID,189,VALID,0.4125,
2008-08-21, 00:27:04,VALID,1010.35,VALID,0,VALID,92.0505,VALID,0.105969,VALID,24.6294,VALID,175,VALID,0.395703,
2008-08-21, 00:28:04,VALID,1010.32,VALID,0,VALID,92.2487,VALID,0.105969,VALID,24.6081,VALID,175,VALID,0.1625,
2008-08-21, 00:29:04,VALID,1010.31,VALID,0,VALID,92.3021,VALID,0.105969,VALID,24.6081,VALID,175,VALID,0.144141,
2008-08-21, 00:30:04,VALID,1010.29,VALID,0,VALID,92.3021,VALID,0.105969,VALID,24.6081,VALID,175,VALID,0,
2008-08-21, 00:31:04,VALID,1010.31,VALID,0,VALID,92.2945,VALID,0,VALID,24.5886,VALID,175,VALID,0.0453125,
2008-08-21, 00:32:04,VALID,1010.3,VALID,0,VALID,92.4623,VALID,0.105969,VALID,24.6099,VALID,175,VALID,0.279297,
2008-08-21, 00:33:04,VALID,1010.3,VALID,0,VALID,92.4013,VALID,0,VALID,24.5691,VALID,175,VALID,0.135547,
2008-08-21, 00:34:04,VALID,1010.33,VALID,0,VALID,91.9818,VALID,0.105969,VALID,24.5496,VALID,175,VALID,0,
2008-08-21, 00:35:04,VALID,1010.32,VALID,0,VALID,92.0733,VALID,0.105969,VALID,24.5515,VALID,175,VALID,0.0367187,
2008-08-21, 00:36:04,VALID,1010.33,VALID,0,VALID,92.0047,VALID,0,VALID,24.5106,VALID,175,VALID,0,
2008-08-21, 00:37:04,VALID,1010.32,VALID,0,VALID,92.02,VALID,0,VALID,24.4522,VALID,175,VALID,0,
2008-08-21, 00:38:04,VALID,1010.33,VALID,0,VALID,92.2106,VALID,0.105969,VALID,24.4327,VALID,175,VALID,0.0691406,
2008-08-21, 00:39:04,VALID,1010.29,VALID,0,VALID,92.3631,VALID,0.105969,VALID,24.4345,VALID,178,VALID,0.232422,
2008-08-21, 00:40:04,VALID,1010.28,VALID,0,VALID,92.4089,VALID,0,VALID,24.3937,VALID,178,VALID,0.274219,
2008-08-21, 00:41:04,VALID,1010.3,VALID,0,VALID,92.4851,VALID,0.105969,VALID,24.3937,VALID,178,VALID,0.189844,
2008-08-21, 00:42:04,VALID,1010.25,VALID,0,VALID,92.3555,VALID,0.105969,VALID,24.3742,VALID,178,VALID,0.242969,
2008-08-21, 00:43:04,VALID,1010.24,VALID,0,VALID,92.5995,VALID,0.105969,VALID,24.3937,VALID,178,VALID,0.250781,
2008-08-21, 00:44:04,VALID,1010.25,VALID,0,VALID,92.7673,VALID,0.105969,VALID,24.3742,VALID,178,VALID,0.11875,
2008-08-21, 00:45:04,VALID,1010.23,VALID,0,VALID,92.691,VALID,0.105969,VALID,24.3547,VALID,178,VALID,0.0464844,
2008-08-21, 00:46:04,VALID,1010.21,VALID,0,VALID,92.6071,VALID,0,VALID,24.3158,VALID,178,VALID,0.295312,
2008-08-21, 00:47:04,VALID,1010.22,VALID,0,VALID,92.5614,VALID,0.105969,VALID,24.2768,VALID,178,VALID,0.00546875,
2008-08-21, 00:48:04,VALID,1010.18,VALID,0,VALID,92.6148,VALID,0.105969,VALID,24.2378,VALID,178,VALID,0.103125,
2008-08-21, 00:49:04,VALID,1010.15,VALID,0,VALID,92.63,VALID,0.105969,VALID,24.2183,VALID,178,VALID,0,
2008-08-21, 00:50:04,VALID,1010.13,VALID,0,VALID,92.8436,VALID,0.105969,VALID,24.1793,VALID,178,VALID,0.00195313,
2008-08-21, 00:51:04,VALID,1010.12,VALID,0,VALID,93.0571,VALID,0,VALID,24.1599,VALID,178,VALID,0.232422,
2008-08-21, 00:52:04,VALID,1010.12,VALID,0,VALID,93.4155,VALID,0.105969,VALID,24.1793,VALID,231,VALID,0.210938,
2008-08-21, 00:53:04,VALID,1010.09,VALID,0,VALID,93.2706,VALID,0.105969,VALID,24.1599,VALID,226,VALID,0.381641,
2008-08-21, 00:54:04,VALID,1010.09,VALID,0,VALID,93.1562,VALID,0,VALID,24.1599,VALID,226,VALID,0,
2008-08-21, 00:55:04,VALID,1010.05,VALID,0,VALID,93.1562,VALID,0.105969,VALID,24.1404,VALID,226,VALID,0.0175781,
2008-08-21, 00:56:04,VALID,1010.06,VALID,0,VALID,93.324,VALID,0.105969,VALID,24.1404,VALID,189,VALID,0.63125,
2008-08-21, 00:57:04,VALID,1010.01,VALID,0,VALID,93.4307,VALID,0.105969,VALID,24.1404,VALID,177,VALID,0.476172,
2008-08-21, 00:58:04,VALID,1009.99,VALID,0,VALID,93.4536,VALID,0.105969,VALID,24.1793,VALID,180,VALID,0.340625,
2008-08-21, 00:59:04,VALID,1010,VALID,0,VALID,93.5146,VALID,0.105969,VALID,24.1988,VALID,198,VALID,0.682031,
2008-08-21, 01:00:04,VALID,1009.98,VALID,0,VALID,93.5451,VALID,0.105969,VALID,24.2378,VALID,190,VALID,0.599609,
2008-08-21, 01:01:04,VALID,1009.96,VALID,0,VALID,93.4384,VALID,0.105969,VALID,24.2768,VALID,212,VALID,0.421875,
2008-08-21, 01:02:04,VALID,1009.95,VALID,0,VALID,93.3468,VALID,0.105969,VALID,24.3158,VALID,217,VALID,0.624219,
2008-08-21, 01:03:04,VALID,1009.97,VALID,0,VALID,93.1638,VALID,0.105969,VALID,24.3352,VALID,201,VALID,0.453125,
2008-08-21, 01:04:04,VALID,1009.98,VALID,0,VALID,93.0418,VALID,0.105969,VALID,24.3742,VALID,202,VALID,0.675781,
2008-08-21, 01:05:04,VALID,1009.94,VALID,0,VALID,92.8436,VALID,0.105969,VALID,24.4132,VALID,182,VALID,0.262109,
2008-08-21, 01:06:04,VALID,1009.93,VALID,0,VALID,92.6834,VALID,0.105969,VALID,24.4522,VALID,221,VALID,0.478906,
2008-08-21, 01:07:04,VALID,1009.9,VALID,0,VALID,92.4851,VALID,0.105969,VALID,24.5106,VALID,194,VALID,0.728125,
2008-08-21, 01:08:04,VALID,1009.88,VALID,0,VALID,92.2259,VALID,0.211938,VALID,24.5691,VALID,207,VALID,0.437109,
2008-08-21, 01:09:04,VALID,1009.87,VALID,0,VALID,92.0276,VALID,0.105969,VALID,24.6081,VALID,199,VALID,0.00429688,
2008-08-21, 01:10:04,VALID,1009.86,VALID,0,VALID,91.8903,VALID,0.105969,VALID,24.6081,VALID,201,VALID,0.359766,
2008-08-21, 01:11:04,VALID,1009.85,VALID,0,VALID,91.7454,VALID,0.105969,VALID,24.6276,VALID,201,VALID,0.362109,
2008-08-21, 01:12:04,VALID,1009.84,VALID,0,VALID,91.6311,VALID,0.105969,VALID,24.6276,VALID,201,VALID,0.159375,
2008-08-21, 01:13:04,VALID,1009.84,VALID,0,VALID,91.5853,VALID,0.105969,VALID,24.6081,VALID,201,VALID,0.358984,
2008-08-21, 01:14:04,VALID,1009.84,VALID,0,VALID,91.5853,VALID,0.105969,VALID,24.5886,VALID,201,VALID,0.320313,
2008-08-21, 01:15:04,VALID,1009.83,VALID,0,VALID,91.6082,VALID,0.105969,VALID,24.5691,VALID,201,VALID,0.410937,
2008-08-21, 01:16:04,VALID,1009.84,VALID,0,VALID,91.7226,VALID,0,VALID,24.532,VALID,201,VALID,0.272656,
2008-08-21, 01:17:04,VALID,1009.81,VALID,0,VALID,91.837,VALID,0,VALID,24.493,VALID,201,VALID,0.155859,
2008-08-21, 01:18:04,VALID,1009.8,VALID,0,VALID,91.9666,VALID,0,VALID,24.4735,VALID,201,VALID,0.228516,
2008-08-21, 01:19:04,VALID,1009.79,VALID,0,VALID,92.1572,VALID,0,VALID,24.4345,VALID,201,VALID,0.364453,
2008-08-21, 01:20:04,VALID,1009.77,VALID,0,VALID,92.3326,VALID,0,VALID,24.4559,VALID,206,VALID,0.341406,
2008-08-21, 01:21:04,VALID,1009.72,VALID,0,VALID,92.4165,VALID,0,VALID,24.4735,VALID,208,VALID,0.321094,
2008-08-21, 01:22:04,VALID,1009.71,VALID,0,VALID,92.3097,VALID,0,VALID,24.4735,VALID,208,VALID,0.153906,
2008-08-21, 01:23:04,VALID,1009.71,VALID,0,VALID,92.203,VALID,0,VALID,24.4735,VALID,208,VALID,0.315625,
2008-08-21, 01:24:04,VALID,1009.64,VALID,0,VALID,92.1954,VALID,0,VALID,24.493,VALID,205,VALID,0.255859,
2008-08-21, 01:25:04,VALID,1009.64,VALID,0,VALID,92.0962,VALID,0,VALID,24.493,VALID,205,VALID,0.146875,
2008-08-21, 01:26:04,VALID,1009.61,VALID,0,VALID,92.0733,VALID,0,VALID,24.4735,VALID,205,VALID,0.0679687,
2008-08-21, 01:27:04,VALID,1009.59,VALID,0,VALID,92.0657,VALID,0,VALID,24.454,VALID,201,VALID,0.453906,
2008-08-21, 01:28:04,VALID,1009.57,VALID,0,VALID,92.0352,VALID,0,VALID,24.454,VALID,189,VALID,0.44375,
2008-08-21, 01:29:04,VALID,1009.57,VALID,0,VALID,91.9208,VALID,0,VALID,24.4345,VALID,190,VALID,0.346875,
2008-08-21, 01:30:04,VALID,1009.53,VALID,0,VALID,91.8751,VALID,0,VALID,24.4345,VALID,181,VALID,0.659766,
2008-08-21, 01:31:04,VALID,1009.51,VALID,0,VALID,91.8598,VALID,0.105969,VALID,24.4327,VALID,187,VALID,0.45625,
2008-08-21, 01:32:04,VALID,1009.51,VALID,0,VALID,91.9666,VALID,0.105969,VALID,24.4327,VALID,186,VALID,0.597656,
2008-08-21, 01:33:04,VALID,1009.48,VALID,0,VALID,91.9285,VALID,0.105969,VALID,24.4327,VALID,186,VALID,0.358594,
2008-08-21, 01:34:04,VALID,1009.49,VALID,0,VALID,91.9666,VALID,0.105969,VALID,24.4503,VALID,200,VALID,0.296875,
2008-08-21, 01:35:04,VALID,1009.49,VALID,0,VALID,91.9285,VALID,0.105969,VALID,24.4522,VALID,199,VALID,0.417188,
2008-08-21, 01:36:04,VALID,1009.45,VALID,0,VALID,91.9132,VALID,0.105969,VALID,24.4717,VALID,183,VALID,0.376563,
2008-08-21, 01:37:04,VALID,1009.47,VALID,0,VALID,91.898,VALID,0.105969,VALID,24.4522,VALID,177,VALID,0.0316406,
2008-08-21, 01:38:04,VALID,1009.45,VALID,0,VALID,91.8522,VALID,0.105969,VALID,24.4717,VALID,177,VALID,0,
2008-08-21, 01:39:04,VALID,1009.42,VALID,0,VALID,91.959,VALID,0.105969,VALID,24.4717,VALID,231,VALID,0.310547,
2008-08-21, 01:40:04,VALID,1009.43,VALID,0,VALID,91.9285,VALID,0.105969,VALID,24.4522,VALID,286,VALID,0.291016,
2008-08-21, 01:41:04,VALID,1009.41,VALID,0,VALID,91.9208,VALID,0,VALID,24.4717,VALID,288,VALID,0.175,
2008-08-21, 01:42:04,VALID,1009.43,VALID,0,VALID,91.898,VALID,0.105969,VALID,24.493,VALID,287,VALID,0.337109,
2008-08-21, 01:43:04,VALID,1009.41,VALID,0,VALID,91.7302,VALID,0.105969,VALID,24.4717,VALID,285,VALID,0,
2008-08-21, 01:44:04,VALID,1009.44,VALID,0,VALID,91.6387,VALID,0,VALID,24.4522,VALID,285,VALID,0.142578,
2008-08-21, 01:45:04,VALID,1009.43,VALID,0,VALID,91.448,VALID,0,VALID,24.415,VALID,285,VALID,0.00351562,
2008-08-21, 01:46:04,VALID,1009.45,VALID,0,VALID,91.4099,VALID,0.105969,VALID,24.3352,VALID,285,VALID,0,
2008-08-21, 01:47:04,VALID,1009.48,VALID,0,VALID,91.7759,VALID,0,VALID,24.2768,VALID,284,VALID,0.202734,
2008-08-21, 01:48:04,VALID,1009.48,VALID,0,VALID,91.2955,VALID,0.105969,VALID,24.1988,VALID,284,VALID,0.200781,
2008-08-21, 01:49:04,VALID,1009.48,VALID,0,VALID,91.6616,VALID,0,VALID,24.1404,VALID,32,VALID,0.406641,
2008-08-21, 01:50:04,VALID,1009.47,VALID,0,VALID,91.7226,VALID,0.105969,VALID,24.1014,VALID,32,VALID,0.344922,
2008-08-21, 01:51:04,VALID,1009.45,VALID,0,VALID,91.9361,VALID,0.105969,VALID,24.0429,VALID,32,VALID,0.304688,
2008-08-21, 01:52:04,VALID,1009.45,VALID,0,VALID,92.2869,VALID,0,VALID,24.004,VALID,32,VALID,0.328906,
2008-08-21, 01:53:04,VALID,1009.44,VALID,0,VALID,92.9122,VALID,0.105969,VALID,23.9845,VALID,31,VALID,0,
2008-08-21, 01:54:04,VALID,1009.45,VALID,0,VALID,93.1028,VALID,0.105969,VALID,23.9455,VALID,31,VALID,0,
2008-08-21, 01:55:04,VALID,1009.44,VALID,0,VALID,93.3087,VALID,0.105969,VALID,23.926,VALID,31,VALID,0,
2008-08-21, 01:56:04,VALID,1009.45,VALID,0,VALID,93.3926,VALID,0.105969,VALID,23.9065,VALID,31,VALID,0,
2008-08-21, 01:57:04,VALID,1009.45,VALID,0,VALID,93.4384,VALID,0.105969,VALID,23.9084,VALID,32,VALID,0,
2008-08-21, 01:58:04,VALID,1009.47,VALID,0,VALID,93.4917,VALID,0.105969,VALID,23.8481,VALID,31,VALID,0,
2008-08-21, 01:59:04,VALID,1009.45,VALID,0,VALID,93.3087,VALID,0.105969,VALID,23.7896,VALID,32,VALID,0.310547,
2008-08-21, 02:00:04,VALID,1009.49,VALID,0,VALID,93.385,VALID,0.105969,VALID,23.7701,VALID,32,VALID,0.334766,
2008-08-21, 02:01:04,VALID,1009.49,VALID,0,VALID,93.5909,VALID,0.105969,VALID,23.7701,VALID,31,VALID,0.216797,
2008-08-21, 02:02:04,VALID,1009.48,VALID,0,VALID,93.6748,VALID,0.105969,VALID,23.7701,VALID,32,VALID,0.05,
2008-08-21, 02:03:04,VALID,1009.46,VALID,0,VALID,93.7281,VALID,0.105969,VALID,23.7312,VALID,32,VALID,0.314844,
2008-08-21, 02:04:04,VALID,1009.45,VALID,0,VALID,93.7053,VALID,0.105969,VALID,23.7117,VALID,32,VALID,0,
2008-08-21, 02:05:04,VALID,1009.43,VALID,0,VALID,93.69,VALID,0.105969,VALID,23.6922,VALID,32,VALID,0,
2008-08-21, 02:06:04,VALID,1009.42,VALID,0,VALID,93.7281,VALID,0,VALID,23.6727,VALID,31,VALID,0,
2008-08-21, 02:07:04,VALID,1009.4,VALID,0,VALID,93.7434,VALID,0.105969,VALID,23.6532,VALID,32,VALID,0,
2008-08-21, 02:08:04,VALID,1009.4,VALID,0,VALID,93.8502,VALID,0.105969,VALID,23.6532,VALID,31,VALID,0,
2008-08-21, 02:09:04,VALID,1009.38,VALID,0,VALID,93.9798,VALID,0.105969,VALID,23.6532,VALID,32,VALID,0,
2008-08-21, 02:10:04,VALID,1009.42,VALID,0,VALID,94.1628,VALID,0.105969,VALID,23.6922,VALID,31,VALID,0.226563,
2008-08-21, 02:11:04,VALID,1009.39,VALID,0,VALID,94.2162,VALID,0.105969,VALID,23.7117,VALID,32,VALID,0.137891,
2008-08-21, 02:12:04,VALID,1009.41,VALID,0,VALID,94.1704,VALID,0.105969,VALID,23.6922,VALID,32,VALID,0.0535156,
2008-08-21, 02:13:04,VALID,1009.42,VALID,0,VALID,94.1018,VALID,0.105969,VALID,23.6532,VALID,32,VALID,0,
2008-08-21, 02:14:04,VALID,1009.39,VALID,0,VALID,93.9188,VALID,0,VALID,23.655,VALID,32,VALID,0,
2008-08-21, 02:15:04,VALID,1009.38,VALID,0,VALID,93.934,VALID,0.105969,VALID,23.6143,VALID,31,VALID,0.0203125,
2008-08-21, 02:16:04,VALID,1009.4,VALID,0,VALID,94.0255,VALID,0,VALID,23.655,VALID,32,VALID,0.224219,
2008-08-21, 02:17:04,VALID,1009.37,VALID,0,VALID,94.1323,VALID,0.105969,VALID,23.6745,VALID,32,VALID,0.155469,
2008-08-21, 02:18:04,VALID,1009.36,VALID,0,VALID,94.2543,VALID,0,VALID,23.6745,VALID,32,VALID,0,
2008-08-21, 02:19:04,VALID,1009.37,VALID,0,VALID,94.3077,VALID,0.105969,VALID,23.6745,VALID,32,VALID,0,
2008-08-21, 02:20:04,VALID,1009.36,VALID,0,VALID,94.2543,VALID,0,VALID,23.6532,VALID,32,VALID,0,
2008-08-21, 02:21:04,VALID,1009.38,VALID,0,VALID,94.3077,VALID,0.105969,VALID,23.6727,VALID,32,VALID,0,
2008-08-21, 02:22:04,VALID,1009.35,VALID,0,VALID,94.2314,VALID,0.105969,VALID,23.6532,VALID,32,VALID,0.264453,
2008-08-21, 02:23:04,VALID,1009.36,VALID,0,VALID,94.1857,VALID,0.105969,VALID,23.6143,VALID,32,VALID,0.291797,
2008-08-21, 02:24:04,VALID,1009.33,VALID,0,VALID,94.1171,VALID,0.105969,VALID,23.5948,VALID,32,VALID,0.328906,
2008-08-21, 02:25:04,VALID,1009.29,VALID,0,VALID,94.1628,VALID,0,VALID,23.6143,VALID,32,VALID,0.398828,
2008-08-21, 02:26:04,VALID,1009.28,VALID,0,VALID,94.2314,VALID,0.105969,VALID,23.6143,VALID,32,VALID,0.442969,
2008-08-21, 02:27:04,VALID,1009.25,VALID,0,VALID,94.3382,VALID,0.105969,VALID,23.6532,VALID,60,VALID,0.525781,
2008-08-21, 02:28:04,VALID,1009.23,VALID,0,VALID,94.445,VALID,0.105969,VALID,23.7117,VALID,88,VALID,0.498047,
2008-08-21, 02:29:04,VALID,1009.18,VALID,0,VALID,94.4907,VALID,0.105969,VALID,23.7507,VALID,88,VALID,0.360156,
2008-08-21, 02:30:04,VALID,1009.16,VALID,0,VALID,94.4526,VALID,0.105969,VALID,23.7507,VALID,88,VALID,0.240625,
2008-08-21, 02:31:04,VALID,1009.13,VALID,0,VALID,94.3763,VALID,0,VALID,23.7525,VALID,88,VALID,0.235156,
2008-08-21, 02:32:04,VALID,1009.15,VALID,0,VALID,94.3458,VALID,0,VALID,23.772,VALID,88,VALID,0.0976563,
2008-08-21, 02:33:04,VALID,1009.14,VALID,0,VALID,94.3306,VALID,0,VALID,23.772,VALID,88,VALID,0,
2008-08-21, 02:34:04,VALID,1009.16,VALID,0,VALID,94.3001,VALID,0,VALID,23.7525,VALID,88,VALID,0.222266,
2008-08-21, 02:35:04,VALID,1009.15,VALID,0,VALID,94.3077,VALID,0,VALID,23.7932,VALID,88,VALID,0.261719,
2008-08-21, 02:36:04,VALID,1009.19,VALID,0,VALID,94.3229,VALID,0,VALID,23.8127,VALID,88,VALID,0.459766,
2008-08-21, 02:37:04,VALID,1009.19,VALID,0,VALID,94.3611,VALID,0,VALID,23.8322,VALID,88,VALID,0.413672,
2008-08-21, 02:38:04,VALID,1009.22,VALID,0,VALID,94.3611,VALID,0,VALID,23.8304,VALID,157,VALID,0.509375,
2008-08-21, 02:39:04,VALID,1009.21,VALID,0,VALID,94.2924,VALID,0,VALID,23.8517,VALID,157,VALID,0.323828,
2008-08-21, 02:40:04,VALID,1009.24,VALID,0,VALID,94.2619,VALID,0,VALID,23.8712,VALID,157,VALID,0.266797,
2008-08-21, 02:41:04,VALID,1009.26,VALID,0,VALID,94.2314,VALID,0,VALID,23.8304,VALID,157,VALID,0.208984,
2008-08-21, 02:42:04,VALID,1009.3,VALID,0,VALID,94.2238,VALID,0,VALID,23.8499,VALID,157,VALID,0.30625,
2008-08-21, 02:43:04,VALID,1009.31,VALID,0,VALID,94.2391,VALID,0,VALID,23.8499,VALID,157,VALID,0.234766,
2008-08-21, 02:44:04,VALID,1009.32,VALID,0,VALID,94.2314,VALID,0,VALID,23.8694,VALID,160,VALID,0.539453,
2008-08-21, 02:45:04,VALID,1009.33,VALID,0,VALID,94.1857,VALID,0,VALID,23.8694,VALID,160,VALID,0.295312,
2008-08-21, 02:46:04,VALID,1009.33,VALID,0,VALID,94.1476,VALID,0.105969,VALID,23.8694,VALID,160,VALID,0.328125,
2008-08-21, 02:47:04,VALID,1009.32,VALID,0,VALID,94.1094,VALID,0.105969,VALID,23.8694,VALID,160,VALID,0.349609,
2008-08-21, 02:48:04,VALID,1009.36,VALID,0,VALID,94.0484,VALID,0.105969,VALID,23.8481,VALID,157,VALID,0.816797,
2008-08-21, 02:49:04,VALID,1009.35,VALID,0,VALID,94.0103,VALID,0,VALID,23.8694,VALID,153,VALID,0.405859,
2008-08-21, 02:50:04,VALID,1009.35,VALID,0,VALID,93.9722,VALID,0.105969,VALID,23.8481,VALID,153,VALID,0.358984,
2008-08-21, 02:51:04,VALID,1009.38,VALID,0,VALID,93.9645,VALID,0.105969,VALID,23.8889,VALID,151,VALID,0.439844,
2008-08-21, 02:52:04,VALID,1009.37,VALID,0,VALID,93.9722,VALID,0,VALID,23.8889,VALID,135,VALID,0.526172,
2008-08-21, 02:53:04,VALID,1009.37,VALID,0,VALID,93.9722,VALID,0.105969,VALID,23.8676,VALID,137,VALID,0.760938,
2008-08-21, 02:54:04,VALID,1009.41,VALID,0,VALID,93.9569,VALID,0.105969,VALID,23.9278,VALID,139,VALID,0.815234,
2008-08-21, 02:55:04,VALID,1009.38,VALID,0,VALID,93.873,VALID,0.105969,VALID,23.9473,VALID,133,VALID,0.789453,
2008-08-21, 02:56:04,VALID,1009.39,VALID,0,VALID,93.7586,VALID,0.105969,VALID,23.9455,VALID,135,VALID,1.07773,
2008-08-21, 02:57:04,VALID,1009.4,VALID,0,VALID,93.6519,VALID,0.105969,VALID,23.965,VALID,137,VALID,0.927344,
2008-08-21, 02:58:04,VALID,1009.44,VALID,0,VALID,93.4384,VALID,0.105969,VALID,23.9845,VALID,140,VALID,0.672656,
2008-08-21, 02:59:04,VALID,1009.44,VALID,0,VALID,93.3392,VALID,0.105969,VALID,24.0058,VALID,148,VALID,0.966797,
2008-08-21, 03:00:04,VALID,1009.43,VALID,0,VALID,93.2248,VALID,0.105969,VALID,23.9632,VALID,150,VALID,0.826953,
2008-08-21, 03:01:04,VALID,1009.42,VALID,0,VALID,93.1867,VALID,0,VALID,23.9863,VALID,140,VALID,0.899609,
2008-08-21, 03:02:04,VALID,1009.44,VALID,0,VALID,93.1638,VALID,0,VALID,23.9881,VALID,157,VALID,0.867188,
2008-08-21, 03:03:04,VALID,1009.46,VALID,0,VALID,93.1943,VALID,0,VALID,23.9881,VALID,153,VALID,1.03711,
2008-08-21, 03:04:04,VALID,1009.47,VALID,0,VALID,93.2706,VALID,0,VALID,23.9863,VALID,156,VALID,0.876562,
2008-08-21, 03:05:04,VALID,1009.47,VALID,0,VALID,93.3468,VALID,0,VALID,23.9863,VALID,164,VALID,1.38086,
2008-08-21, 03:06:04,VALID,1009.48,VALID,0,VALID,93.3316,VALID,0,VALID,24.0058,VALID,177,VALID,0.995703,
2008-08-21, 03:07:04,VALID,1009.46,VALID,0,VALID,93.2401,VALID,0,VALID,23.9863,VALID,166,VALID,0.765625,
2008-08-21, 03:08:04,VALID,1009.47,VALID,0,VALID,93.1791,VALID,0,VALID,24.0076,VALID,177,VALID,0.611328,
2008-08-21, 03:09:04,VALID,1009.49,VALID,0,VALID,93.202,VALID,0,VALID,24.0076,VALID,176,VALID,0.959766,
2008-08-21, 03:10:04,VALID,1009.48,VALID,0,VALID,93.2096,VALID,0,VALID,24.0076,VALID,182,VALID,0.555469,
2008-08-21, 03:11:04,VALID,1009.5,VALID,0,VALID,93.2325,VALID,0,VALID,23.9881,VALID,173,VALID,0.570313,
2008-08-21, 03:12:04,VALID,1009.51,VALID,0,VALID,93.3087,VALID,0,VALID,23.9668,VALID,146,VALID,0.677344,
2008-08-21, 03:13:04,VALID,1009.49,VALID,0,VALID,93.2782,VALID,0,VALID,23.9668,VALID,172,VALID,0.515234,
2008-08-21, 03:14:04,VALID,1009.53,VALID,0,VALID,93.2172,VALID,0,VALID,23.9668,VALID,166,VALID,0.401563,
2008-08-21, 03:15:04,VALID,1009.53,VALID,0,VALID,93.3926,VALID,0,VALID,23.9863,VALID,171,VALID,1.06523,
2008-08-21, 03:16:04,VALID,1009.54,VALID,0,VALID,93.3697,VALID,0,VALID,24.0058,VALID,159,VALID,0.945703,
2008-08-21, 03:17:04,VALID,1009.51,VALID,0,VALID,93.2401,VALID,0,VALID,24.0253,VALID,178,VALID,1.01367,
2008-08-21, 03:18:04,VALID,1009.51,VALID,0,VALID,93.1105,VALID,0,VALID,24.0448,VALID,170,VALID,0.783594,
2008-08-21, 03:19:04,VALID,1009.51,VALID,0,VALID,93.0418,VALID,0,VALID,24.0643,VALID,164,VALID,0.975391,
2008-08-21, 03:20:04,VALID,1009.5,VALID,0,VALID,93.0189,VALID,0,VALID,24.0448,VALID,169,VALID,0.598047,
2008-08-21, 03:21:04,VALID,1009.54,VALID,0,VALID,92.9656,VALID,0,VALID,24.0253,VALID,169,VALID,0.313672,
2008-08-21, 03:22:04,VALID,1009.53,VALID,0,VALID,93.0723,VALID,0,VALID,24.0448,VALID,168,VALID,0.850391,
2008-08-21, 03:23:04,VALID,1009.52,VALID,0,VALID,93.1638,VALID,0,VALID,24.0837,VALID,171,VALID,0.599609,
2008-08-21, 03:24:04,VALID,1009.55,VALID,0,VALID,93.0876,VALID,0,VALID,24.1051,VALID,181,VALID,0.754687,
2008-08-21, 03:25:04,VALID,1009.55,VALID,0,VALID,93.0952,VALID,0,VALID,24.0837,VALID,144,VALID,1.11875,
2008-08-21, 03:26:04,VALID,1009.55,VALID,0,VALID,93.0952,VALID,0,VALID,24.0837,VALID,186,VALID,1.07656,
2008-08-21, 03:27:04,VALID,1009.53,VALID,0,VALID,93.0113,VALID,0,VALID,24.1032,VALID,161,VALID,0.868359,
2008-08-21, 03:28:04,VALID,1009.5,VALID,0,VALID,92.9503,VALID,0,VALID,24.1032,VALID,190,VALID,1.05273,
2008-08-21, 03:29:04,VALID,1009.52,VALID,0,VALID,92.9427,VALID,0,VALID,24.1032,VALID,155,VALID,1.04258,
2008-08-21, 03:30:04,VALID,1009.51,VALID,0,VALID,92.9198,VALID,0,VALID,24.1032,VALID,174,VALID,1.01992,
2008-08-21, 03:31:04,VALID,1009.53,VALID,0,VALID,92.9656,VALID,0,VALID,24.1032,VALID,142,VALID,0.919141,
2008-08-21, 03:32:04,VALID,1009.55,VALID,0,VALID,93.0266,VALID,0,VALID,24.1032,VALID,159,VALID,0.946484,
2008-08-21, 03:33:04,VALID,1009.56,VALID,0,VALID,93.0037,VALID,0,VALID,24.1245,VALID,160,VALID,0.621875,
2008-08-21, 03:34:04,VALID,1009.55,VALID,0,VALID,92.9808,VALID,0,VALID,24.1245,VALID,169,VALID,0.457031,
2008-08-21, 03:35:04,VALID,1009.56,VALID,0,VALID,92.9122,VALID,0,VALID,24.0837,VALID,179,VALID,0.346875,
2008-08-21, 03:36:04,VALID,1009.57,VALID,0,VALID,92.9884,VALID,0,VALID,24.0837,VALID,145,VALID,0.698828,
2008-08-21, 03:37:04,VALID,1009.57,VALID,0,VALID,93.0494,VALID,0,VALID,24.0643,VALID,176,VALID,0.412109,
2008-08-21, 03:38:04,VALID,1009.61,VALID,0,VALID,93.0799,VALID,0,VALID,24.0837,VALID,177,VALID,0.148438,
2008-08-21, 03:39:04,VALID,1009.64,VALID,0,VALID,93.0418,VALID,0,VALID,24.0643,VALID,177,VALID,0.273047,